Overview Statistics Trail Chart Weather Telemetry Raw packets
 

This is the latest recevied weather packets stored in our database for station/object KB1WCR. If no packets are shown the sender has not sent any weather packets the latest 10 day(s).

<< 85 86 87 88 89 90 91 >>
Time Temp. Humidity Pressure Rain* Wind** Luminosity Snow
1787790852 18.33° C 90% 1018 hPa 0 mm - 0 W/m² -
1787790546 18.89° C 89% 1017.9 hPa 0 mm - 0 W/m² -
1787790241 18.89° C 87% 1017.7 hPa 0 mm - 0 W/m² -
1787789937 18.89° C 88% 1017.7 hPa 0 mm - 0 W/m² -
1787789637 18.89° C 87% 1017.6 hPa 0 mm - 0 W/m² -
1787789337 19.44° C 85% 1017.7 hPa 0 mm - 0 W/m² -
1787789031 20° C 85% 1017.5 hPa 0 mm - 0 W/m² -
1787788729 20° C 83% 1017.4 hPa 0 mm - 0 W/m² -
1787788424 20° C 84% 1017.2 hPa 0 mm - 0 W/m² -
1787788118 20° C 84% 1017.2 hPa 0 mm - 0 W/m² -
1787787814 20° C 85% 1017.3 hPa 0 mm - 0 W/m² -
1787787512 20° C 82% 1017.2 hPa 0 mm - 1 W/m² -
1787787207 20.56° C 82% 1017.2 hPa 0 mm - 1 W/m² -
1787786906 21.11° C 81% 1016.9 hPa 0 mm - 3 W/m² -
1787786602 21.67° C 79% 1016.9 hPa 0 mm - 7 W/m² -
1787786296 21.67° C 77% 1016.8 hPa 0 mm - 13 W/m² -
1787785992 21.67° C 77% 1016.8 hPa 0 mm - 20 W/m² -
1787785687 22.22° C 79% 1016.8 hPa 0 mm - 24 W/m² -
1787785382 22.22° C 78% 1016.6 hPa 0 mm - 29 W/m² -
1787785080 22.22° C 78% 1016.8 hPa 0 mm - 32 W/m² -
1787784776 22.78° C 77% 1016.8 hPa 0 mm - 34 W/m² -
1787784469 22.78° C 78% 1017 hPa 0 mm - 34 W/m² -
1787784164 22.78° C 77% 1016.7 hPa 0 mm - 33 W/m² -
1787783860 22.78° C 76% 1016.7 hPa 0 mm - 34 W/m² -
1787783555 22.78° C 76% 1016.8 hPa 0 mm - 35 W/m² -

* Rain latest hour (hover to see other rain measurements)
** Current wind speed in m/s (hover to see current wind gust speed)